Hot Springs, AR

4:33 AM CDT on April 26, 2017 (GMT -0500)
Hot Springs Memorial

Weather History for KHOT - May, 2013

Change the Weather History Date:

Thursday, May 2, 2013

  Actual Average Record
Temperature  
Mean Temperature 58 °F -  
Max Temperature 70 °F 75 °F 92 °F (1987)
Min Temperature 46 °F 53 °F 41 °F (1989)
Degree Days  
Heating Degree Days 8    
Growing Degree Days 8 (Base 50)    
Moisture  
Dew Point 56 °F    
Average Humidity 87    
Maximum Humidity 100    
Minimum Humidity 73    
Precipitation  
Precipitation 0.03 in - - ()
Sea Level Pressure  
Sea Level Pressure 30.07 in    
Wind  
Wind Speed 5 mph (NNW)    
Max Wind Speed 13 mph    
Max Gust Speed 26 mph    
Visibility 10 miles    
Events Rain    
Averages and records for this station are not official NWS values.
T = Trace of Precipitation, MM = Missing Value Source: NWS Daily Summary

Daily Weather History Graph

Daily Weather History Graph

Search for Another Location

Airport or City:

Trip Planner

Search our weather history database for the weather conditions in past years. The results will help you decide how hot, cold, wet, or windy it might be!

Date:

Astronomy

May. 02, 2013 Rise Set
Actual Time 6:21 AM CDT 7:58 PM CDT
Civil Twilight 5:54 AM CDT 8:25 PM CDT
Nautical Twilight 5:21 AM CDT 8:57 PM CDT
Astronomical Twilight 4:47 AM CDT 9:31 PM CDT
Moon 1:50 AM CDT (5/2) 1:05 PM CDT (5/2)
Length of Visible Light 14h 30m
Length of Day
13h 36m
Waning Gibbous, 47% of the Moon is Illuminated
May 2
Waning Gibbous
May 9
New
May 17
First Quarter
May 24
Full
May 31
Last Quarter

Hourly Weather History & Observations

Time (CDT) Temp. Windchill Dew Point Humidity Pressure Visibility Wind Dir Wind Speed Gust Speed Precip Events Conditions
12:53 AM 64.9 °F - 59.0 °F 81% 30.02 in 10.0 mi East 3.5 mph - N/A   Overcast
1:53 AM 64.9 °F - 59.0 °F 81% 30.03 in 10.0 mi East 3.5 mph - N/A   Overcast
2:53 AM 64.0 °F - 59.0 °F 84% 30.01 in 10.0 mi East 4.6 mph - N/A   Overcast
3:53 AM 64.0 °F - 59.0 °F 84% 30.02 in 10.0 mi Calm Calm - N/A   Overcast
4:53 AM 64.0 °F - 60.1 °F 87% 30.02 in 10.0 mi Calm Calm - N/A   Overcast
5:28 AM 64.4 °F - 60.8 °F 88% 30.05 in 10.0 mi Calm Calm - N/A   Overcast
5:49 AM 64.4 °F - 60.8 °F 88% 30.05 in 10.0 mi Calm Calm - N/A   Overcast
5:53 AM 64.0 °F - 60.1 °F 87% 30.04 in 10.0 mi Calm Calm - N/A   Mostly Cloudy
6:34 AM 62.6 °F - 60.8 °F 94% 30.06 in 10.0 mi Calm Calm - N/A   Overcast
6:53 AM 64.0 °F - 60.1 °F 87% 30.05 in 10.0 mi Calm Calm - N/A   Overcast
7:53 AM 66.0 °F - 60.1 °F 81% 30.06 in 10.0 mi NE 8.1 mph - N/A   Overcast
8:53 AM 68.0 °F - 61.0 °F 78% 30.07 in 10.0 mi ENE 11.5 mph - N/A   Mostly Cloudy
9:23 AM 69.8 °F - 62.6 °F 78% 30.08 in 10.0 mi East 11.5 mph - N/A   Mostly Cloudy
9:53 AM 68.0 °F - 61.0 °F 78% 30.07 in 10.0 mi East 10.4 mph - N/A   Overcast
10:28 AM 69.8 °F - 60.8 °F 73% 30.09 in 10.0 mi ENE 8.1 mph - N/A   Overcast
10:53 AM 69.1 °F - 60.1 °F 73% 30.08 in 10.0 mi East 5.8 mph - N/A   Overcast
11:53 AM 68.0 °F - 62.1 °F 81% 30.09 in 10.0 mi NNE 5.8 mph - 0.00 in   Overcast
12:53 PM 69.1 °F - 61.0 °F 75% 30.08 in 10.0 mi ENE 5.8 mph - N/A   Overcast
1:27 PM 66.2 °F - 60.8 °F 83% 30.09 in 10.0 mi ESE 5.8 mph - N/A   Overcast
1:53 PM 63.0 °F - 60.1 °F 90% 30.08 in 8.0 mi WNW 5.8 mph - 0.01 in Rain Light Rain
2:00 PM 62.6 °F - 60.8 °F 94% 30.09 in 8.0 mi NW 8.1 mph - 0.00 in Rain Light Rain
2:10 PM 60.8 °F - 60.8 °F 100% 30.09 in 10.0 mi NW 6.9 mph - 0.00 in Rain Light Rain
2:53 PM 61.0 °F - 59.0 °F 93% 30.08 in 10.0 mi NW 9.2 mph - 0.02 in   Overcast
3:05 PM 60.8 °F - 59.0 °F 94% 30.09 in 10.0 mi NW 9.2 mph 16.1 mph N/A   Overcast
3:53 PM 60.1 °F - 57.0 °F 90% 30.07 in 10.0 mi Variable 6.9 mph - 0.00 in   Overcast
4:07 PM 59.0 °F - 57.2 °F 94% 30.07 in 10.0 mi NW 5.8 mph - N/A   Overcast
4:53 PM 57.0 °F - 54.0 °F 89% 30.07 in 4.0 mi NW 8.1 mph 17.3 mph 0.00 in Rain Light Rain
5:53 PM 55.0 °F - 51.1 °F 86% 30.07 in 10.0 mi NW 9.2 mph 19.6 mph 0.00 in   Overcast
6:00 PM 53.6 °F - 51.8 °F 94% 30.08 in 10.0 mi NW 8.1 mph 19.6 mph N/A   Overcast
6:53 PM 54.0 °F - 50.0 °F 86% 30.08 in 10.0 mi Variable 6.9 mph - N/A   Overcast
7:09 PM 53.6 °F - 48.2 °F 82% 30.09 in 10.0 mi NW 11.5 mph 23.0 mph N/A   Overcast
7:18 PM 53.6 °F - 48.2 °F 82% 30.08 in 10.0 mi NW 10.4 mph 17.3 mph N/A   Overcast
7:27 PM 53.6 °F - 50.0 °F 88% 30.09 in 10.0 mi WNW 9.2 mph 17.3 mph N/A   Overcast
7:53 PM 52.0 °F - 48.9 °F 89% 30.09 in 10.0 mi NW 11.5 mph 18.4 mph N/A   Overcast
8:42 PM 50.0 °F - 48.2 °F 94% 30.11 in 6.0 mi NW 9.2 mph 20.7 mph 0.00 in   Overcast
8:53 PM 50.0 °F - 48.0 °F 93% 30.10 in 7.0 mi NW 9.2 mph 17.3 mph 0.00 in Rain Light Rain
9:12 PM 48.2 °F - 46.4 °F 93% 30.11 in 9.0 mi NW 12.7 mph 26.5 mph 0.00 in   Overcast
9:22 PM 48.2 °F - 46.4 °F 93% 30.11 in 10.0 mi NW 12.7 mph 25.3 mph 0.00 in   Overcast
9:53 PM 48.9 °F - 46.0 °F 90% 30.11 in 10.0 mi Variable 6.9 mph - 0.00 in   Overcast
10:53 PM 46.9 °F - 45.0 °F 93% 30.12 in 9.0 mi WNW 4.6 mph - 0.00 in Rain Light Rain
11:53 PM 46.0 °F 42.5 °F 44.1 °F 93% 30.10 in 8.0 mi Variable 6.9 mph - 0.00 in   Overcast